RAISE-4

导读

RAISE-4是由美国开发,于2025年12月14日成功发射的人造卫星,代表着美国航天领域最新技术探索成果。作为美国航天发射计划的重要组成部分,该卫星的成功入轨进一步巩固了美国在商业航天和对地观测领域的领先优势,将为后续相关技术验证和空间应用拓展提供关键支撑,助力推进卫星星座组网建设进程。

Basic Information
目录编号:
67073
目录名称:
RAISE-4
国际标识:
2025-297B
轨道中心:
EARTH
卫星名称:
RAISE-4
卫星全名:
RAISE-4
卫星状态:
在轨 (已飞行264 天)
发射日期:
2025-12-14 UTC
国别 :
日本 (JP)
星等 :
--
Orbit Information
数据来源 国际轨道数据
星历时间: 2026-09-03T16:52:10+0800
1天前
查看轨道信息
半长轴: 6915.883km
偏心率: 0.001337
轨道倾角: 97.522°
近地点辐角 125.455°
升交点赤经 32.849°
平近点角 234.793°
近地点: 528.499km
远地点: 546.993km
周期: 95.396分钟
每日圈数: 15.094939
Detailed Information
使用方式:
暂无
2D Orbit Map
3D Orbit Map
Orbit Altitude Analysis Chart
Orbit Inclination Analysis Chart
Orbit Comprehensive Analysis Chart
View Comprehensive Chart
Conjunction Data List
Event ID Objects TCA Miss Dist (km) Collision Risk Probability Collision Risk Index (CRI) Action
CDM_260905-212804-681006-707322
TIANQI-6 (46810)
RAISE-4 (67073)
2026-09-05T
21:28:00+0000
2.110 km
极远距离
2.284951E-6 低风险 0.42
CDM_260906-111406-707306-879221
RAISE-4 (67073)
OBJECT A (68792)
2026-09-06T
11:14:45+0000
2.757 km
极远距离
2.582262E-7 极低风险 0.23